Regional Weather Roundup
Issued by NWS

Home | Current Version | Previous Version | Graphics & Text | Print | Product List | Glossary On
Versions: 1 2 3 4 5 6 7 8 9 10 11 12 13 14 15 16 17 18 19 20 21 22 23 24 25 26 27 28 29 30 31 32 33 34 35 36 37 38 39 40 41 42 43 44 45 46 47 48 49 50
000
ASUS43 KFSD 250402
RWRSD

WEATHER ROUNDUP FOR SOUTH DAKOTA
NATIONAL WEATHER SERVICE SIOUX FALLS SD
1000 PM CST SAT JAN 24 2015

NOTE: "FAIR" INDICATES FEW OR NO CLOUDS BELOW 12,000 FEET WITH NO
SIGNIFICANT WEATHER AND/OR OBSTRUCTIONS TO VISIBILITY.


SDZ001>005-009-010-012>017-250500-
NORTHWEST AND NORTH CENTRAL SOUTH DAKOTA

CITY           SKY/WX    TMP DP  RH WIND       PRES   REMARKS
BUFFALO          N/A     38  30  73 NW36G44   29.87R
FAITH            N/A     40  29  64 NW39G48   29.86R
MOBRIDGE       LGT RAIN  36  34  92 NW14      29.78R
$$

SDZ012>016-024>037-041>051-057-063-072>074-250500-
SOUTHWEST AND SOUTH CENTRAL SOUTH DAKOTA

CITY           SKY/WX    TMP DP  RH WIND       PRES   REMARKS
RAPID CTY ARPT PTCLDY    42  26  53 NW30G41   29.95R
PIERRE         LGT RAIN  37  34  89 NW22G28   29.79R
CUSTER         CLEAR     33  20  58 NW14G26   29.98R WCI  23
PHILIP         CLOUDY    44  30  57 NW39G49   29.86R
PINE RIDGE     MOCLDY    37  27  67 NW8       29.96R
WINNER         CLOUDY    41  36  82 NW26G35   29.77R
$$

SDZ004>011-016>023-039-040-250500-
NORTHEAST SOUTH DAKOTA

CITY           SKY/WX    TMP DP  RH WIND       PRES   REMARKS
ABERDEEN       LGT SNOW  33  30  88 N18       29.76R FOG     WCI  22
WATERTOWN      LGT SNOW  32  30  92 N15       29.64R FOG     WCI  22
SISSETON         N/A     32  32 100 N14       29.70R WCI  22
$$

SDZ017-020-022-023-036>040-048>070-250500-
SOUTHEAST SOUTH DAKOTA

CITY           SKY/WX    TMP DP  RH WIND       PRES   REMARKS
SIOUX FALLS    LGT RAIN  37  35  92 N8        29.58R
HURON          MIX PCPN  33  31  92 N21       29.69R FOG     WCI  21
MITCHELL       CLOUDY    38  35  89 N26G40    29.65R
YANKTON        CLOUDY    39  36  87 NW23G29   29.62R
$$

ABBREVIATIONS USED IN REMARKS
   TC - TEMPERATURE IN CELSIUS
  WCI - WIND CHILL INDEX
   HX - HEAT INDEX
  VSB - VISIBILITY




USA.gov is the U.S. government's official web portal to all federal, state and local government web resources and services.